Stations météo

réclame
Mon MeteoGroup
Skillinge, Suède (2625): Température de l'air & dewpoint: 14.11.2017 01:00:00 - 20.11.2017 01:00:00 (CET)Skillinge, Suède (2625): Vitesse du vent & gusts: 14.11.2017 01:00:00 - 20.11.2017 01:00:00 (CET)Skillinge, Suède (2625): Direction du vent: 14.11.2017 01:00:00 - 20.11.2017 01:00:00 (CET)Skillinge, Suède (2625): reduced air pressure: 14.11.2017 01:00:00 - 20.11.2017 01:00:00 (CET)Skillinge, Suède (2625): visibility: 14.11.2017 01:00:00 - 20.11.2017 01:00:00 (CET)Skillinge, Suède (2625): Quantités de précipitations: 14.11.2017 01:00:00 - 20.11.2017 01:00:00 (CET)
Date & Time tt [°C] td [°C] ff [km/h] ff [knt] fx [km/h] fx [knt] dd ppp [hPa] vv [km] rr [mm]
20.11.2017 01:00:00 - - - - - - - - - -
20.11.2017 00:00:00 -0,6 -2,2 13 7 29 16 NW 1006,3 50 0,0
19.11.2017 23:00:00 -0,2 -2,1 14 8 29 16 NW 1005,7 50 0,0
19.11.2017 22:00:00 0,7 -1,5 16 9 37 20 NNW 1005,0 50 0,0
19.11.2017 21:00:00 1,8 -0,8 21 11 40 22 NNW 1003,7 50 0,0
19.11.2017 20:00:00 2,4 0,3 25 13 40 22 NNW 1002,3 30 0,0
19.11.2017 19:00:00 2,6 1,0 21 11 36 20 NNW 1000,7 11 0,0
19.11.2017 18:00:00 3,5 1,2 23 12 35 19 NNW 998,8 50 0,0
19.11.2017 17:00:00 3,4 1,4 18 10 29 16 NW 997,4 48 0,0
19.11.2017 16:00:00 3,4 1,0 15 8 36 19 NW 996,4 50 0,0
19.11.2017 15:00:00 3,7 0,7 18 10 38 21 WNW 995,8 50 0,0
19.11.2017 14:00:00 4,3 1,0 19 10 38 21 WNW 995,1 50 0,0
19.11.2017 13:00:00 5,7 2,7 22 12 35 19 W 994,6 50 0,0
19.11.2017 12:00:00 6,1 3,4 17 9 35 19 WNW 994,1 49 0,0
19.11.2017 11:00:00 6,1 3,4 22 12 35 19 W 993,9 39 0,0
19.11.2017 10:00:00 4,7 2,7 16 9 39 21 W 993,8 46 0,0
19.11.2017 09:00:00 4,8 2,8 16 9 39 21 WSW 993,6 44 0,0
19.11.2017 08:00:00 5,2 3,1 24 13 37 20 WSW 993,8 30 0,0
19.11.2017 07:00:00 4,6 2,9 18 10 35 19 WSW 994,0 22 0,0
19.11.2017 06:00:00 4,1 2,6 18 10 37 20 WSW 994,5 31 0,0
19.11.2017 05:00:00 4,8 2,8 23 13 37 20 WSW 995,5 11 0,1
19.11.2017 04:00:00 5,1 2,3 18 10 37 20 WSW 996,2 23 0,0
19.11.2017 03:00:00 4,6 2,1 16 9 33 18 WSW 996,8 19 0,0
19.11.2017 02:00:00 5,0 2,9 18 10 33 18 WSW 997,5 19 0,0
19.11.2017 01:00:00 5,0 3,0 19 10 32 17 WSW 998,2 27 0,0
19.11.2017 00:00:00 4,0 2,5 15 8 33 18 WSW 998,8 31 0,0
18.11.2017 23:00:00 4,9 3,2 20 11 33 18 WSW 999,6 14 0,1
18.11.2017 22:00:00 5,1 3,0 19 10 36 19 WSW 1000,0 16 0,0
18.11.2017 21:00:00 4,3 2,2 19 11 36 19 WSW 1000,1 26 0,0
18.11.2017 20:00:00 5,0 2,7 21 11 32 18 WSW 1000,6 27 0,0
18.11.2017 19:00:00 3,1 1,5 13 7 21 11 WSW 1001,1 36 0,0
18.11.2017 18:00:00 2,9 1,4 13 7 26 14 W 1001,4 50 0,0
18.11.2017 17:00:00 3,3 1,7 16 9 36 19 W 1001,4 50 0,0
18.11.2017 16:00:00 4,0 2,0 21 12 36 19 W 1001,3 23 0,0
18.11.2017 15:00:00 5,3 2,8 16 9 66 35 W 1001,1 50 0,0
18.11.2017 14:00:00 5,1 3,1 14 8 66 35 W 1001,0 50 0,0
18.11.2017 13:00:00 6,3 4,3 42 23 63 34 WSW 1000,9 10 0,5
18.11.2017 12:00:00 6,6 4,8 35 19 58 32 SW 1002,1 16 1,3
18.11.2017 11:00:00 6,7 5,5 36 20 59 32 SW 1003,5 5 1,8
18.11.2017 10:00:00 6,9 5,5 36 20 59 32 SW 1004,7 10 1,2
18.11.2017 09:00:00 7,1 5,4 39 21 59 32 SW 1006,0 8 1,1
18.11.2017 08:00:00 7,4 4,7 35 19 59 32 SW 1007,1 19 0,0
18.11.2017 07:00:00 7,1 4,7 28 15 44 24 SW 1008,2 24 0,0
18.11.2017 06:00:00 7,1 4,6 27 15 48 26 WSW 1009,4 26 0,0
18.11.2017 05:00:00 7,1 4,6 29 16 48 26 WSW 1010,5 27 0,1
18.11.2017 04:00:00 6,8 4,5 26 14 46 25 WSW 1011,5 24 0,1
18.11.2017 03:00:00 6,9 4,2 28 15 44 24 WSW 1012,9 21 0,0
18.11.2017 02:00:00 7,2 4,5 24 13 38 20 WSW 1013,8 27 0,0
18.11.2017 01:00:00 7,0 4,5 23 12 45 24 WSW 1014,9 30 0,0
18.11.2017 00:00:00 6,8 4,5 22 12 45 24 WSW 1015,5 28 0,0
17.11.2017 23:00:00 6,8 4,3 23 12 37 20 WSW 1016,1 33 0,0
17.11.2017 22:00:00 6,3 4,3 21 11 34 18 WSW 1016,8 27 0,0
17.11.2017 21:00:00 6,1 4,1 19 11 35 19 WSW 1017,6 25 0,0
17.11.2017 20:00:00 6,2 4,0 24 13 35 19 WSW 1017,8 27 0,0
17.11.2017 19:00:00 4,9 3,1 15 8 27 15 WSW 1018,4 22 0,0
17.11.2017 18:00:00 5,6 3,1 15 8 27 15 WSW 1019,0 20 0,0
17.11.2017 17:00:00 6,0 3,3 16 9 26 14 WSW 1019,3 22 0,0
17.11.2017 16:00:00 6,3 3,6 15 8 31 17 WSW 1019,5 20 0,0
17.11.2017 15:00:00 6,6 3,6 14 8 36 19 WSW 1019,4 21 0,0
17.11.2017 14:00:00 7,4 3,1 19 11 36 19 W 1019,7 23 0,0
17.11.2017 13:00:00 8,1 3,6 21 11 33 18 W 1020,0 20 0,0
17.11.2017 12:00:00 7,9 4,5 19 11 32 17 W 1019,8 17 0,0
17.11.2017 11:00:00 7,1 4,4 19 10 29 15 W 1019,7 16 0,0
17.11.2017 10:00:00 6,0 3,8 15 8 26 14 WSW 1019,5 16 0,0
17.11.2017 09:00:00 5,0 3,0 14 7 26 14 W 1019,2 14 0,0
17.11.2017 08:00:00 4,0 2,4 15 8 24 13 W 1018,7 13 0,0
17.11.2017 07:00:00 3,9 2,3 13 7 24 13 W 1018,3 14 0,0
17.11.2017 06:00:00 4,3 2,8 16 9 24 13 W 1017,8 14 0,0
17.11.2017 05:00:00 4,7 2,9 13 7 22 12 W 1017,4 15 0,0
17.11.2017 04:00:00 4,9 3,6 12 7 22 12 W 1016,9 22 0,0
17.11.2017 03:00:00 6,1 4,3 13 7 36 19 W 1016,5 45 0,0
17.11.2017 02:00:00 6,9 4,9 13 7 40 22 WNW 1015,5 32 1,2
17.11.2017 01:00:00 8,8 8,0 27 15 45 25 WSW 1014,7 3,0 0,6
17.11.2017 00:00:00 8,6 7,8 24 13 45 25 SW 1015,0 3,6 0,4
16.11.2017 23:00:00 8,4 7,6 26 14 43 23 SW 1015,5 5 0,8
16.11.2017 22:00:00 8,5 7,3 26 14 42 23 SW 1016,1 8 0,0
16.11.2017 21:00:00 8,6 7,2 29 15 42 23 SW 1016,4 6 0,0
16.11.2017 20:00:00 8,5 7,4 28 15 39 21 SSW 1017,2 7 0,0
16.11.2017 19:00:00 8,2 7,6 29 15 40 21 SSW 1017,8 6 0,0
16.11.2017 18:00:00 8,1 7,5 27 14 35 19 SSW 1018,5 8 0,0
16.11.2017 17:00:00 8,1 7,5 26 14 35 19 SSW 1019,0 6 0,0
16.11.2017 16:00:00 7,7 7,1 26 14 32 17 S 1019,9 8 0,2
16.11.2017 15:00:00 7,6 6,9 23 12 30 16 SSW 1020,5 11 0,0
16.11.2017 14:00:00 7,5 6,8 22 12 27 15 SSW 1021,4 12 0,0
16.11.2017 13:00:00 6,9 6,2 16 9 26 14 SW 1022,1 17 0,0
16.11.2017 12:00:00 6,9 6,5 16 9 26 14 SSW 1022,6 12 0,0
16.11.2017 11:00:00 6,9 6,8 17 9 26 14 SSW 1023,1 10 0,0
16.11.2017 10:00:00 6,3 6,2 11 6 16 9 SW 1023,6 3,4 0,0
16.11.2017 09:00:00 3,4 3,3 6 4 13 7 W 1023,5 0,8 0,0
16.11.2017 08:00:00 2,6 2,5 6 3 13 7 W 1023,6 3,4 0,0
16.11.2017 07:00:00 2,4 2,3 9 5 14 8 W 1023,5 0,3 0,0
16.11.2017 06:00:00 2,4 2,3 8 4 14 8 WSW 1023,4 8 0,0
16.11.2017 05:00:00 3,4 3,3 8 5 13 7 W 1023,7 0,3 0,0
16.11.2017 04:00:00 4,8 4,5 9 5 13 7 WSW 1023,8 0,3 0,0
16.11.2017 03:00:00 5,0 4,6 8 4 12 6 WSW 1023,8 3,8 0,0
16.11.2017 02:00:00 4,5 3,8 5 3 16 9 WSW 1023,7 6 0,0
16.11.2017 01:00:00 5,5 4,5 4 2 16 9 W 1023,5 8 0,0
16.11.2017 00:00:00 5,8 5,2 9 5 13 7 W 1023,7 9 0,0
15.11.2017 23:00:00 4,8 4,4 9 5 12 7 W 1023,5 6 0,0
15.11.2017 22:00:00 4,1 3,7 8 4 11 6 W 1023,4 4,9 0,0
15.11.2017 21:00:00 3,8 3,4 7 4 10 5 W 1023,1 5 0,0
15.11.2017 20:00:00 5,5 5,1 5 3 18 10 W 1022,7 8 0,0
15.11.2017 19:00:00 5,7 5,1 8 4 19 11 WSW 1022,2 8 0,0
15.11.2017 18:00:00 6,7 6,0 12 7 20 11 W 1021,8 15 0,0
15.11.2017 17:00:00 6,4 5,2 11 6 25 14 W 1021,1 23 0,0
15.11.2017 16:00:00 7,1 6,0 13 7 26 14 WSW 1020,8 16 0,0
15.11.2017 15:00:00 8,7 6,8 16 9 26 14 WSW 1020,5 22 0,0
15.11.2017 14:00:00 9,4 5,9 17 9 30 16 WSW 1020,6 40 0,0
15.11.2017 13:00:00 9,5 6,2 19 10 30 16 W 1020,3 34 0,0
15.11.2017 12:00:00 9,2 6,5 21 11 30 16 W 1020,2 23 0,0
15.11.2017 11:00:00 8,6 6,9 16 9 30 16 W 1020,0 16 0,0
15.11.2017 10:00:00 7,1 6,2 16 9 27 14 W 1020,0 11 0,0
15.11.2017 09:00:00 6,5 5,8 16 9 26 14 WSW 1019,8 11 0,0
15.11.2017 08:00:00 4,9 4,3 11 6 23 12 W 1019,4 10 0,0
15.11.2017 07:00:00 4,9 4,3 13 7 20 11 WSW 1019,0 10 0,0
15.11.2017 06:00:00 4,8 4,1 12 7 20 11 WSW 1018,4 10 0,0
15.11.2017 05:00:00 4,9 4,3 10 6 17 9 W 1018,0 10 0,0
15.11.2017 04:00:00 5,4 4,7 8 4 17 9 WSW 1018,2 9 0,0
15.11.2017 03:00:00 4,7 4,1 10 5 16 9 W 1018,1 9 0,0
15.11.2017 02:00:00 4,2 3,6 9 5 15 8 WSW 1018,0 10 0,0
15.11.2017 01:00:00 4,0 3,1 6 3 12 7 W 1017,3 15 0,0
15.11.2017 00:00:00 3,9 2,6 7 4 16 9 W 1016,8 43 0,0
14.11.2017 23:00:00 4,4 2,7 7 4 28 15 WSW 1016,1 48 0,0
14.11.2017 22:00:00 5,3 3,5 11 6 38 20 W 1015,2 42 0,0
14.11.2017 21:00:00 7,2 3,8 16 9 44 24 WNW 1014,3 50 0,0
14.11.2017 20:00:00 8,3 4,9 26 14 44 24 W 1013,2 35 0,0
14.11.2017 19:00:00 7,9 6,2 22 12 45 24 W 1012,1 14 0,0
14.11.2017 18:00:00 8,0 6,3 29 16 50 27 WSW 1011,5 15 0,0
14.11.2017 17:00:00 7,4 5,9 32 17 53 29 WSW 1011,4 18 0,0
14.11.2017 16:00:00 6,8 5,6 31 17 53 29 SW 1011,5 8 0,5
14.11.2017 15:00:00 6,1 4,7 32 17 46 25 SW 1012,1 5 1,6
14.11.2017 14:00:00 6,3 4,6 25 14 40 22 SW 1012,6 9 0,6
14.11.2017 13:00:00 6,0 4,5 23 13 34 19 SW 1013,6 9 0,8
14.11.2017 12:00:00 5,3 3,6 15 8 29 16 SW 1014,6 11 0,0
14.11.2017 11:00:00 4,8 2,8 14 8 29 16 WSW 1015,5 12 0,7
14.11.2017 10:00:00 4,3 2,5 9 5 18 10 WSW 1015,7 32 0,0
14.11.2017 09:00:00 3,6 1,8 12 6 17 9 W 1015,9 37 0,0
14.11.2017 08:00:00 1,8 0,6 9 5 17 9 W 1015,8 31 0,0
14.11.2017 07:00:00 2,2 0,9 14 7 17 9 W 1015,6 30 0,0
14.11.2017 06:00:00 1,7 0,5 9 5 13 7 W 1015,7 33 0,0
14.11.2017 05:00:00 0,5 -0,5 10 5 12 7 W 1015,7 27 0,0
14.11.2017 04:00:00 -1,1 -2,2 6 4 8 4 W 1016,2 27 0,0
14.11.2017 03:00:00 -1,7 -2,5 4 2 12 7 WSW 1016,3 50 0,0
14.11.2017 02:00:00 -1,3 -2,3 4 2 13 7 W 1016,5 40 0,0
14.11.2017 01:00:00 -1,6 -2,7 11 6 13 7 NW 1016,3 50 0,0

tt = Température de l'air
td = dewpoint
ff = Vitesse du vent
fx = gusts
dd = Direction du vent
ppp = reduced air pressure
vv = visibility
rr = Quantités de précipitations

stations d'obs. à proximité